Time,TemperatureF,DewpointF,PressureIn,WindDirection,WindDirectionDegrees,WindSpeedMPH,WindSpeedGustMPH,Humidity,HourlyPrecipIn,Conditions,Clouds,dailyrainin,SoftwareType,DateUTC
2013-08-15 00:01:00,81.2,72.9,29.98,SE,138,0.0,0.0,76,0.00,,OVC,0.00,WeatherDisplay:10.37,2013-08-15 04:01:00,
2013-08-15 00:06:00,81.2,72.9,29.98,SE,140,0.0,0.0,76,0.00,,OVC,0.00,WeatherDisplay:10.37,2013-08-15 04:06:00,
2013-08-15 00:11:00,81.2,72.9,29.98,SE,130,0.0,0.0,76,0.00,,OVC,0.00,WeatherDisplay:10.37,2013-08-15 04:11:00,
2013-08-15 00:16:00,81.2,72.9,29.98,SE,130,0.0,0.0,76,0.00,,OVC,0.00,WeatherDisplay:10.37,2013-08-15 04:16:00,
2013-08-15 00:21:00,81.2,72.9,29.98,SE,130,0.0,0.0,76,0.00,,OVC,0.00,WeatherDisplay:10.37,2013-08-15 04:21:00,
2013-08-15 00:26:00,81.2,73.3,29.98,SE,130,0.0,0.0,77,0.00,,OVC,0.00,WeatherDisplay:10.37,2013-08-15 04:26:00,
2013-08-15 00:31:00,81.2,73.3,29.98,SE,130,0.0,0.0,77,0.00,,OVC,0.00,WeatherDisplay:10.37,2013-08-15 04:31:00,
2013-08-15 00:36:00,81.2,73.3,29.98,SE,130,0.0,0.0,77,0.00,,OVC,0.00,WeatherDisplay:10.37,2013-08-15 04:36:00,
2013-08-15 00:41:00,81.2,73.3,29.98,SE,130,0.0,0.0,77,0.00,,OVC,0.00,WeatherDisplay:10.37,2013-08-15 04:41:00,
2013-08-15 00:46:00,81.1,73.2,29.98,SE,130,0.0,0.0,77,0.00,,OVC,0.00,WeatherDisplay:10.37,2013-08-15 04:46:00,
2013-08-15 00:51:00,81.1,73.6,29.98,SE,131,0.0,0.0,78,0.00,,OVC,0.00,WeatherDisplay:10.37,2013-08-15 04:51:00,
2013-08-15 00:56:00,81.1,73.6,29.98,SE,131,0.0,0.0,78,0.00,,OVC,0.00,WeatherDisplay:10.37,2013-08-15 04:56:00,
2013-08-15 01:01:00,81.1,74.0,29.97,SE,131,0.0,0.0,79,0.00,,OVC,0.00,WeatherDisplay:10.37,2013-08-15 05:01:00,
2013-08-15 01:06:00,81.1,74.0,29.97,SE,131,0.0,0.0,79,0.00,,OVC,0.00,WeatherDisplay:10.37,2013-08-15 05:06:00,
2013-08-15 01:11:00,81.1,74.0,29.97,SE,131,0.0,0.0,79,0.00,,OVC,0.00,WeatherDisplay:10.37,2013-08-15 05:11:00,
2013-08-15 01:16:00,80.9,74.1,29.97,SE,131,0.0,0.0,80,0.00,,OVC,0.00,WeatherDisplay:10.37,2013-08-15 05:16:00,
2013-08-15 01:21:00,80.9,74.1,29.97,SE,131,0.0,0.0,80,0.00,,OVC,0.00,WeatherDisplay:10.37,2013-08-15 05:21:00,
2013-08-15 01:26:00,80.7,74.0,29.97,SE,131,0.0,0.0,80,0.00,,OVC,0.00,WeatherDisplay:10.37,2013-08-15 05:26:00,
2013-08-15 01:31:00,80.5,74.1,29.97,SE,131,0.0,0.0,81,0.00,,OVC,0.00,WeatherDisplay:10.37,2013-08-15 05:31:00,
2013-08-15 01:36:00,80.5,74.1,29.97,SE,131,0.0,0.0,81,0.00,,OVC,0.00,WeatherDisplay:10.37,2013-08-15 05:36:00,
2013-08-15 01:41:00,80.3,73.9,29.97,SE,131,0.0,0.0,81,0.00,,OVC,0.00,WeatherDisplay:10.37,2013-08-15 05:41:00,
2013-08-15 01:46:00,80.3,74.3,29.97,SE,131,0.0,0.0,82,0.00,,OVC,0.00,WeatherDisplay:10.37,2013-08-15 05:46:00,
2013-08-15 01:51:00,80.3,74.3,29.97,SE,131,0.0,0.0,82,0.00,,OVC,0.00,WeatherDisplay:10.37,2013-08-15 05:51:00,
2013-08-15 01:56:00,80.3,74.3,29.97,SE,131,0.0,0.0,82,0.00,,OVC,0.00,WeatherDisplay:10.37,2013-08-15 05:56:00,
2013-08-15 02:01:00,80.1,74.1,29.96,SE,131,0.0,0.0,82,0.00,,OVC,0.00,WeatherDisplay:10.37,2013-08-15 06:01:00,
2013-08-15 02:06:00,80.1,74.5,29.96,SE,131,0.0,0.0,83,0.00,,OVC,0.00,WeatherDisplay:10.37,2013-08-15 06:06:00,
2013-08-15 02:11:00,80.1,74.5,29.96,SE,131,0.0,0.0,83,0.00,,OVC,0.00,WeatherDisplay:10.37,2013-08-15 06:11:00,
2013-08-15 02:16:00,79.9,74.3,29.96,SE,131,0.0,0.0,83,0.00,,OVC,0.00,WeatherDisplay:10.37,2013-08-15 06:16:00,
2013-08-15 02:21:00,79.9,74.6,29.96,SE,131,0.0,0.0,84,0.00,,OVC,0.00,WeatherDisplay:10.37,2013-08-15 06:21:00,
2013-08-15 02:26:00,79.8,74.5,29.96,SE,131,0.0,0.0,84,0.00,,OVC,0.00,WeatherDisplay:10.37,2013-08-15 06:26:00,
2013-08-15 02:31:00,79.8,74.9,29.95,SE,131,0.0,0.0,85,0.00,,OVC,0.00,WeatherDisplay:10.37,2013-08-15 06:31:00,
2013-08-15 02:36:00,79.6,74.7,29.95,SE,131,0.0,0.0,85,0.00,,OVC,0.00,WeatherDisplay:10.37,2013-08-15 06:36:00,
2013-08-15 02:41:00,79.6,74.7,29.95,SE,131,0.0,0.0,85,0.00,,OVC,0.00,WeatherDisplay:10.37,2013-08-15 06:41:00,
2013-08-15 02:46:00,79.4,74.8,29.95,SE,131,0.0,0.0,86,0.00,,OVC,0.00,WeatherDisplay:10.37,2013-08-15 06:46:00,
2013-08-15 02:51:00,79.4,74.8,29.95,SE,131,0.0,0.0,86,0.00,,OVC,0.00,WeatherDisplay:10.37,2013-08-15 06:51:00,
2013-08-15 02:56:00,79.4,75.2,29.95,SE,131,0.0,0.0,87,0.00,,OVC,0.00,WeatherDisplay:10.37,2013-08-15 06:56:00,
2013-08-15 03:01:00,79.2,75.0,29.94,SE,131,0.0,0.0,87,0.00,,OVC,0.00,WeatherDisplay:10.37,2013-08-15 07:01:00,
2013-08-15 03:06:00,79.2,75.0,29.94,SE,131,0.0,0.0,87,0.00,,OVC,0.00,WeatherDisplay:10.37,2013-08-15 07:06:00,
2013-08-15 03:11:00,79.4,75.5,29.94,SE,131,0.0,0.0,88,0.00,,OVC,0.00,WeatherDisplay:10.37,2013-08-15 07:11:00,
2013-08-15 03:16:00,79.4,75.5,29.94,SE,131,0.0,0.0,88,0.00,,OVC,0.00,WeatherDisplay:10.37,2013-08-15 07:16:00,
2013-08-15 03:21:00,79.4,75.5,29.94,SE,131,0.0,0.0,88,0.00,,OVC,0.00,WeatherDisplay:10.37,2013-08-15 07:21:00,
2013-08-15 03:26:00,79.4,75.5,29.94,SE,131,0.0,0.0,88,0.00,,OVC,0.00,WeatherDisplay:10.37,2013-08-15 07:26:00,
2013-08-15 03:31:00,79.4,75.5,29.93,SE,131,0.0,0.0,88,0.00,,OVC,0.00,WeatherDisplay:10.37,2013-08-15 07:31:00,
2013-08-15 03:36:00,79.4,75.5,29.93,SE,131,0.0,0.0,88,0.00,,OVC,0.00,WeatherDisplay:10.37,2013-08-15 07:36:00,
2013-08-15 03:41:00,78.6,73.7,29.93,SE,135,3.5,0.0,85,0.00,,OVC,0.00,WeatherDisplay:10.37,2013-08-15 07:41:00,
2013-08-15 03:47:00,78.3,72.7,29.93,SSE,150,17.0,17.0,83,0.00,,OVC,0.00,WeatherDisplay:10.37,2013-08-15 07:47:00,
2013-08-15 03:52:00,78.5,72.2,29.93,SE,145,31.0,31.0,81,0.00,,OVC,0.00,WeatherDisplay:10.37,2013-08-15 07:52:00,
2013-08-15 03:57:00,77.7,72.5,29.93,SE,132,11.5,11.5,84,0.12,RA,OVC,0.15,WeatherDisplay:10.37,2013-08-15 07:57:00,
2013-08-15 04:02:00,76.3,71.5,29.93,ENE,57,0.0,0.0,85,0.23,RA,OVC,0.23,WeatherDisplay:10.37,2013-08-15 08:02:00,
2013-08-15 04:07:00,75.8,71.7,29.93,NE,54,0.0,0.0,87,0.24,RA,OVC,0.24,WeatherDisplay:10.37,2013-08-15 08:07:00,
2013-08-15 04:12:00,75.4,71.6,29.93,NE,54,0.0,0.0,88,0.24,RA,OVC,0.24,WeatherDisplay:10.37,2013-08-15 08:12:00,
2013-08-15 04:17:00,75.3,71.8,29.93,NE,54,0.0,0.0,89,0.24,,OVC,0.24,WeatherDisplay:10.37,2013-08-15 08:17:00,
2013-08-15 04:22:00,75.3,71.8,29.93,NE,54,0.0,0.0,89,0.24,,OVC,0.24,WeatherDisplay:10.37,2013-08-15 08:22:00,
2013-08-15 04:27:00,75.3,72.2,29.93,NE,54,0.0,0.0,90,0.24,,OVC,0.24,WeatherDisplay:10.37,2013-08-15 08:27:00,
2013-08-15 04:32:00,75.3,72.5,29.95,NE,54,0.0,0.0,91,0.24,,OVC,0.24,WeatherDisplay:10.37,2013-08-15 08:32:00,
2013-08-15 04:37:00,75.3,72.5,29.95,NE,54,0.0,0.0,91,0.24,,OVC,0.24,WeatherDisplay:10.37,2013-08-15 08:37:00,
2013-08-15 04:42:00,75.3,72.5,29.95,NE,54,0.0,0.0,91,0.24,,OVC,0.24,WeatherDisplay:10.37,2013-08-15 08:42:00,
2013-08-15 04:47:00,75.1,72.6,29.95,NE,54,0.0,0.0,92,0.24,,OVC,0.24,WeatherDisplay:10.37,2013-08-15 08:47:00,
2013-08-15 04:52:00,74.9,72.4,29.95,NE,54,0.0,0.0,92,0.24,,OVC,0.24,WeatherDisplay:10.37,2013-08-15 08:52:00,
2013-08-15 04:57:00,74.9,72.4,29.95,NE,54,0.0,0.0,92,0.09,,OVC,0.24,WeatherDisplay:10.37,2013-08-15 08:57:00,
2013-08-15 05:02:00,74.9,72.4,29.95,NE,54,0.0,0.0,92,0.01,,OVC,0.24,WeatherDisplay:10.37,2013-08-15 09:02:00,
2013-08-15 05:07:00,75.1,72.9,29.95,NE,49,0.0,0.0,93,0.00,,OVC,0.24,WeatherDisplay:10.37,2013-08-15 09:07:00,
2013-08-15 05:12:00,75.4,73.2,29.95,NNE,29,6.9,6.9,93,0.00,,OVC,0.24,WeatherDisplay:10.37,2013-08-15 09:12:00,
2013-08-15 05:17:00,75.6,73.4,29.95,NNE,33,1.2,0.0,93,0.00,,OVC,0.24,WeatherDisplay:10.37,2013-08-15 09:17:00,
2013-08-15 05:22:00,75.8,73.6,29.95,NE,35,11.5,11.5,93,0.00,,OVC,0.24,WeatherDisplay:10.37,2013-08-15 09:22:00,
2013-08-15 05:27:00,75.6,73.4,29.95,NNE,19,5.8,5.8,93,0.00,,OVC,0.24,WeatherDisplay:10.37,2013-08-15 09:27:00,
2013-08-15 05:32:00,75.4,73.2,29.95,North,360,0.0,0.0,93,0.00,,OVC,0.24,WeatherDisplay:10.37,2013-08-15 09:32:00,
2013-08-15 05:37:00,75.3,73.1,29.95,North,360,0.0,0.0,93,0.00,,OVC,0.24,WeatherDisplay:10.37,2013-08-15 09:37:00,
2013-08-15 05:42:00,75.1,72.9,29.95,North,360,0.0,0.0,93,0.00,,OVC,0.24,WeatherDisplay:10.37,2013-08-15 09:42:00,
2013-08-15 05:47:00,75.1,73.3,29.95,North,360,0.0,0.0,94,0.00,,OVC,0.24,WeatherDisplay:10.37,2013-08-15 09:47:00,
2013-08-15 05:52:00,75.3,73.5,29.95,North,360,0.0,0.0,94,0.00,,OVC,0.24,WeatherDisplay:10.37,2013-08-15 09:52:00,
2013-08-15 05:57:00,75.1,72.9,29.95,North,360,0.0,0.0,93,0.00,,OVC,0.24,WeatherDisplay:10.37,2013-08-15 09:57:00,
2013-08-15 06:02:00,75.1,72.9,29.95,North,360,0.0,0.0,93,0.00,,OVC,0.24,WeatherDisplay:10.37,2013-08-15 10:02:00,
2013-08-15 06:07:00,75.1,73.3,29.95,North,360,0.0,0.0,94,0.00,,OVC,0.24,WeatherDisplay:10.37,2013-08-15 10:07:00,
2013-08-15 06:12:00,75.1,73.3,29.95,North,360,0.0,0.0,94,0.00,,OVC,0.24,WeatherDisplay:10.37,2013-08-15 10:12:00,
2013-08-15 06:17:00,75.1,73.3,29.95,North,360,0.0,0.0,94,0.00,,OVC,0.24,WeatherDisplay:10.37,2013-08-15 10:17:00,
2013-08-15 06:22:00,75.1,73.3,29.95,North,360,0.0,0.0,94,0.00,,OVC,0.24,WeatherDisplay:10.37,2013-08-15 10:22:00,
2013-08-15 06:27:00,75.1,73.3,29.95,North,360,0.0,0.0,94,0.00,,OVC,0.24,WeatherDisplay:10.37,2013-08-15 10:27:00,
2013-08-15 06:32:00,75.3,73.5,29.96,North,360,0.0,0.0,94,0.00,,OVC,0.24,WeatherDisplay:10.37,2013-08-15 10:32:00,
2013-08-15 06:37:00,75.3,73.5,29.96,North,360,0.0,0.0,94,0.00,,OVC,0.24,WeatherDisplay:10.37,2013-08-15 10:37:00,
2013-08-15 06:42:00,75.4,73.6,29.96,North,360,0.0,0.0,94,0.00,,OVC,0.24,WeatherDisplay:10.37,2013-08-15 10:42:00,
2013-08-15 06:47:00,75.8,74.3,29.98,SSE,161,0.0,0.0,95,0.00,,OVC,0.24,WeatherDisplay:10.37,2013-08-15 10:47:00,
2013-08-15 06:52:00,76.0,74.5,29.98,ESE,119,11.5,11.5,95,0.00,,OVC,0.24,WeatherDisplay:10.37,2013-08-15 10:52:00,
2013-08-15 06:57:00,75.6,73.8,29.98,ESE,117,19.6,19.6,94,0.00,,OVC,0.24,WeatherDisplay:10.37,2013-08-15 10:57:00,
2013-08-15 07:02:00,75.4,73.6,29.97,ESE,102,4.6,4.6,94,0.00,,OVC,0.24,WeatherDisplay:10.37,2013-08-15 11:02:00,
2013-08-15 07:07:00,75.3,73.5,29.97,East,94,0.0,0.0,94,0.00,,OVC,0.24,WeatherDisplay:10.37,2013-08-15 11:07:00,
2013-08-15 07:12:00,75.1,73.3,29.97,SE,136,0.0,0.0,94,0.00,,OVC,0.24,WeatherDisplay:10.37,2013-08-15 11:12:00,
2013-08-15 07:17:00,74.9,73.1,29.97,SE,130,0.0,0.0,94,0.00,,OVC,0.24,WeatherDisplay:10.37,2013-08-15 11:17:00,
2013-08-15 07:22:00,74.9,73.1,29.97,SE,134,10.4,10.4,94,0.00,,OVC,0.24,WeatherDisplay:10.37,2013-08-15 11:22:00,
2013-08-15 07:27:00,74.9,73.1,29.97,SE,135,3.5,0.0,94,0.00,,OVC,0.24,WeatherDisplay:10.37,2013-08-15 11:27:00,
2013-08-15 07:32:00,74.9,73.1,29.96,SE,136,7.0,7.0,94,0.00,,OVC,0.24,WeatherDisplay:10.37,2013-08-15 11:32:00,
2013-08-15 07:37:00,74.7,72.9,29.96,SE,138,0.0,0.0,94,0.00,,OVC,0.24,WeatherDisplay:10.37,2013-08-15 11:37:00,
2013-08-15 07:42:00,74.7,72.9,29.96,SE,138,0.0,0.0,94,0.00,,OVC,0.24,WeatherDisplay:10.37,2013-08-15 11:42:00,
2013-08-15 07:47:00,74.9,73.1,29.97,SE,139,0.0,0.0,94,0.00,,OVC,0.24,WeatherDisplay:10.37,2013-08-15 11:47:00,
2013-08-15 07:52:00,74.9,73.1,29.97,SE,139,0.0,0.0,94,0.00,,OVC,0.24,WeatherDisplay:10.37,2013-08-15 11:52:00,
2013-08-15 07:57:00,74.9,73.1,29.97,SE,138,0.0,0.0,94,0.00,,OVC,0.24,WeatherDisplay:10.37,2013-08-15 11:57:00,
2013-08-15 08:02:00,75.1,73.3,29.97,SE,136,0.0,0.1,94,0.00,,OVC,0.24,WeatherDisplay:10.37,2013-08-15 12:02:00,
2013-08-15 08:07:00,75.1,73.3,29.97,SE,132,0.0,0.0,94,0.00,,OVC,0.24,WeatherDisplay:10.37,2013-08-15 12:07:00,
2013-08-15 08:12:00,75.3,73.5,29.97,SE,130,0.0,0.0,94,0.00,,OVC,0.24,WeatherDisplay:10.37,2013-08-15 12:12:00,
2013-08-15 08:17:00,75.4,73.6,29.97,SE,128,3.5,3.5,94,0.00,,OVC,0.24,WeatherDisplay:10.37,2013-08-15 12:17:00,
2013-08-15 08:22:00,75.6,73.8,29.97,SE,128,0.0,0.0,94,0.00,,OVC,0.24,WeatherDisplay:10.37,2013-08-15 12:22:00,
2013-08-15 08:27:00,75.8,73.9,29.97,SE,127,0.0,0.0,94,0.00,,OVC,0.24,WeatherDisplay:10.37,2013-08-15 12:27:00,
2013-08-15 08:32:00,76.0,74.1,29.97,ESE,122,0.0,0.0,94,0.00,,OVC,0.24,WeatherDisplay:10.37,2013-08-15 12:32:00,
2013-08-15 08:37:00,76.0,74.1,29.97,East,101,0.0,0.0,94,0.00,,OVC,0.24,WeatherDisplay:10.37,2013-08-15 12:37:00,
2013-08-15 08:42:00,76.1,74.2,29.97,East,100,0.0,0.0,94,0.00,,OVC,0.24,WeatherDisplay:10.37,2013-08-15 12:42:00,
2013-08-15 08:47:00,76.3,74.4,29.97,East,99,0.0,0.0,94,0.00,,OVC,0.24,WeatherDisplay:10.37,2013-08-15 12:47:00,
2013-08-15 08:52:00,76.5,74.6,29.97,East,100,0.0,0.0,94,0.00,,OVC,0.24,WeatherDisplay:10.37,2013-08-15 12:52:00,
2013-08-15 08:57:00,76.7,74.8,29.97,ESE,106,0.0,0.0,94,0.00,,OVC,0.24,WeatherDisplay:10.37,2013-08-15 12:57:00,
2013-08-15 09:03:00,76.8,74.9,29.97,ESE,111,0.0,0.0,94,0.00,,OVC,0.24,WeatherDisplay:10.37,2013-08-15 13:03:00,
2013-08-15 09:08:00,76.8,74.9,29.97,ESE,111,0.0,0.0,94,0.00,,OVC,0.24,WeatherDisplay:10.37,2013-08-15 13:08:00,
2013-08-15 09:13:00,77.0,75.1,29.97,ESE,111,0.0,0.0,94,0.00,,OVC,0.24,WeatherDisplay:10.37,2013-08-15 13:13:00,
2013-08-15 09:18:00,77.2,75.3,29.97,ESE,111,0.0,0.0,94,0.00,,OVC,0.24,WeatherDisplay:10.37,2013-08-15 13:18:00,
2013-08-15 09:23:00,77.4,75.5,29.97,ESE,111,0.0,0.0,94,0.00,,OVC,0.24,WeatherDisplay:10.37,2013-08-15 13:23:00,
2013-08-15 09:28:00,77.4,75.2,29.97,ESE,111,0.0,0.0,93,0.00,,OVC,0.24,WeatherDisplay:10.37,2013-08-15 13:28:00,
2013-08-15 09:33:00,77.4,75.2,29.97,ESE,111,0.0,0.0,93,0.00,,OVC,0.24,WeatherDisplay:10.37,2013-08-15 13:33:00,
2013-08-15 09:38:00,77.7,75.5,29.97,ESE,111,0.0,0.0,93,0.00,,OVC,0.24,WeatherDisplay:10.37,2013-08-15 13:38:00,
2013-08-15 09:43:00,77.7,75.5,29.97,SE,131,0.0,0.0,93,0.00,,OVC,0.24,WeatherDisplay:10.37,2013-08-15 13:43:00,
2013-08-15 09:48:00,77.9,75.4,29.98,SE,131,0.0,0.0,92,0.00,,OVC,0.24,WeatherDisplay:10.37,2013-08-15 13:48:00,
2013-08-15 09:53:00,78.3,75.8,29.98,SE,131,0.0,0.0,92,0.00,,OVC,0.24,WeatherDisplay:10.37,2013-08-15 13:53:00,
2013-08-15 09:58:00,78.6,76.1,29.98,SE,132,0.0,0.0,92,0.00,,OVC,0.24,WeatherDisplay:10.37,2013-08-15 13:58:00,
2013-08-15 10:03:00,78.8,75.9,29.98,SE,137,0.0,0.0,91,0.00,,OVC,0.24,WeatherDisplay:10.37,2013-08-15 14:03:00,
2013-08-15 10:08:00,79.0,75.8,29.98,SE,146,0.0,0.0,90,0.00,,OVC,0.24,WeatherDisplay:10.37,2013-08-15 14:08:00,
2013-08-15 10:13:00,79.2,75.7,29.98,SSE,148,11.5,11.5,89,0.00,,OVC,0.24,WeatherDisplay:10.37,2013-08-15 14:13:00,
2013-08-15 10:18:00,79.6,75.7,29.98,SSE,152,10.4,10.4,88,0.00,,OVC,0.24,WeatherDisplay:10.37,2013-08-15 14:18:00,
2013-08-15 10:23:00,79.8,75.9,29.98,SE,146,0.0,0.0,88,0.00,,OVC,0.24,WeatherDisplay:10.37,2013-08-15 14:23:00,
2013-08-15 10:28:00,79.9,75.7,29.98,SE,132,13.8,13.8,87,0.00,,OVC,0.24,WeatherDisplay:10.37,2013-08-15 14:28:00,
2013-08-15 10:33:00,80.1,75.5,29.98,SE,143,12.0,12.0,86,0.00,,OVC,0.24,WeatherDisplay:10.37,2013-08-15 14:33:00,
2013-08-15 10:38:00,80.1,75.2,29.98,SE,140,12.7,12.7,85,0.00,,OVC,0.24,WeatherDisplay:10.37,2013-08-15 14:38:00,
2013-08-15 10:43:00,80.1,74.8,29.98,SE,139,0.0,0.0,84,0.00,,OVC,0.24,WeatherDisplay:10.37,2013-08-15 14:43:00,
2013-08-15 10:48:00,80.3,75.0,29.98,SE,140,0.0,0.0,84,0.00,,OVC,0.24,WeatherDisplay:10.37,2013-08-15 14:48:00,
2013-08-15 10:54:00,80.7,75.8,29.98,SE,140,0.0,0.0,85,0.00,,OVC,0.24,WeatherDisplay:10.37,2013-08-15 14:54:00,
2013-08-15 10:59:00,80.7,75.4,29.99,SE,142,0.0,0.0,84,0.00,,OVC,0.24,WeatherDisplay:10.37,2013-08-15 14:59:00,
2013-08-15 11:04:00,80.7,75.1,29.99,SE,134,0.0,0.0,83,0.00,,OVC,0.24,WeatherDisplay:10.37,2013-08-15 15:04:00,
2013-08-15 11:09:00,80.7,75.1,29.99,SE,130,0.0,0.0,83,0.00,,OVC,0.24,WeatherDisplay:10.37,2013-08-15 15:09:00,
2013-08-15 11:14:00,80.9,75.2,29.99,SE,132,0.0,0.0,83,0.00,,OVC,0.24,WeatherDisplay:10.37,2013-08-15 15:14:00,
2013-08-15 11:19:00,80.9,75.2,29.99,SE,134,0.0,0.0,83,0.00,,OVC,0.24,WeatherDisplay:10.37,2013-08-15 15:19:00,
2013-08-15 11:24:00,80.7,75.1,29.99,SSE,154,0.0,0.0,83,0.00,,OVC,0.24,WeatherDisplay:10.37,2013-08-15 15:24:00,
2013-08-15 11:29:00,80.7,75.1,29.99,SSE,154,0.0,0.0,83,0.00,,OVC,0.24,WeatherDisplay:10.37,2013-08-15 15:29:00,
2013-08-15 11:34:00,80.7,75.4,29.99,SSE,153,0.0,0.0,84,0.00,,OVC,0.24,WeatherDisplay:10.37,2013-08-15 15:34:00,
2013-08-15 11:39:00,80.7,75.4,29.99,SSE,148,0.0,0.0,84,0.00,,OVC,0.24,WeatherDisplay:10.37,2013-08-15 15:39:00,
2013-08-15 11:44:00,80.7,75.4,29.99,SE,143,0.0,0.0,84,0.01,RA,OVC,0.25,WeatherDisplay:10.37,2013-08-15 15:44:00,
2013-08-15 11:49:00,80.7,75.4,29.99,SE,142,0.0,0.0,84,0.01,RA,OVC,0.25,WeatherDisplay:10.37,2013-08-15 15:49:00,
2013-08-15 11:54:00,80.5,75.2,29.99,SE,144,0.0,0.0,84,0.01,,OVC,0.25,WeatherDisplay:10.37,2013-08-15 15:54:00,
2013-08-15 11:59:00,80.7,75.8,30.00,SE,143,0.0,0.0,85,0.01,,OVC,0.25,WeatherDisplay:10.37,2013-08-15 15:59:00,
2013-08-15 12:04:00,80.7,76.1,30.00,SE,143,0.0,0.0,86,0.01,,OVC,0.25,WeatherDisplay:10.37,2013-08-15 16:04:00,
2013-08-15 12:09:00,80.9,76.0,30.00,SE,143,0.0,0.0,85,0.01,,OVC,0.25,WeatherDisplay:10.37,2013-08-15 16:09:00,
2013-08-15 12:15:00,81.1,76.2,30.00,SE,144,0.0,0.0,85,0.01,,OVC,0.25,WeatherDisplay:10.37,2013-08-15 16:15:00,
2013-08-15 12:20:00,80.9,76.0,30.00,SE,142,0.0,0.0,85,0.01,,OVC,0.25,WeatherDisplay:10.37,2013-08-15 16:20:00,
2013-08-15 12:25:00,81.1,76.2,30.00,SE,132,0.0,0.0,85,0.01,,OVC,0.25,WeatherDisplay:10.37,2013-08-15 16:25:00,
2013-08-15 12:30:00,81.1,76.2,30.00,SE,138,0.0,0.0,85,0.01,,OVC,0.25,WeatherDisplay:10.37,2013-08-15 16:30:00,
2013-08-15 12:35:00,81.1,76.2,30.00,SE,138,0.0,0.0,85,0.01,,OVC,0.25,WeatherDisplay:10.37,2013-08-15 16:35:00,
2013-08-15 12:40:00,81.1,75.8,30.00,SE,139,0.0,0.0,84,0.00,,OVC,0.25,WeatherDisplay:10.37,2013-08-15 16:40:00,
2013-08-15 12:45:00,81.1,76.2,30.00,SE,144,0.0,0.0,85,0.00,,OVC,0.25,WeatherDisplay:10.37,2013-08-15 16:45:00,
2013-08-15 12:50:00,81.2,76.3,30.00,SSE,150,0.0,0.0,85,0.00,,OVC,0.25,WeatherDisplay:10.37,2013-08-15 16:50:00,
2013-08-15 12:55:00,81.2,75.9,30.00,SE,132,0.0,0.0,84,0.00,,OVC,0.25,WeatherDisplay:10.37,2013-08-15 16:55:00,
2013-08-15 13:00:00,81.2,75.9,30.00,SE,139,0.0,0.0,84,0.00,,OVC,0.25,WeatherDisplay:10.37,2013-08-15 17:00:00,
2013-08-15 13:05:00,81.1,75.8,30.00,SE,146,0.0,0.0,84,0.00,,OVC,0.25,WeatherDisplay:10.37,2013-08-15 17:05:00,
2013-08-15 13:10:00,81.1,76.2,30.00,SE,142,0.0,0.0,85,0.00,,OVC,0.25,WeatherDisplay:10.37,2013-08-15 17:10:00,
2013-08-15 13:15:00,81.2,76.3,30.00,SE,144,0.0,0.0,85,0.00,,OVC,0.25,WeatherDisplay:10.37,2013-08-15 17:15:00,
2013-08-15 13:21:00,81.2,76.3,30.00,SE,144,0.0,0.0,85,0.01,RA,OVC,0.26,WeatherDisplay:10.37,2013-08-15 17:21:00,
2013-08-15 13:26:00,81.2,75.9,30.00,SE,144,0.0,0.0,84,0.01,RA,OVC,0.26,WeatherDisplay:10.37,2013-08-15 17:26:00,
2013-08-15 13:31:00,81.2,75.9,29.99,SE,132,0.0,0.0,84,0.01,,OVC,0.26,WeatherDisplay:10.37,2013-08-15 17:31:00,
2013-08-15 13:36:00,81.4,76.1,29.99,ESE,117,0.0,0.0,84,0.01,,OVC,0.26,WeatherDisplay:10.37,2013-08-15 17:36:00,
2013-08-15 13:41:00,81.6,75.6,29.99,SE,143,0.0,0.0,82,0.01,,OVC,0.26,WeatherDisplay:10.37,2013-08-15 17:41:00,
2013-08-15 13:46:00,81.8,75.8,29.98,ESE,117,0.0,0.0,82,0.01,,OVC,0.26,WeatherDisplay:10.37,2013-08-15 17:46:00,
2013-08-15 13:51:00,82.0,75.6,29.98,SSE,148,0.0,0.0,81,0.01,,OVC,0.26,WeatherDisplay:10.37,2013-08-15 17:51:00,
2013-08-15 13:56:00,82.0,75.2,29.98,SE,140,0.0,0.0,80,0.01,,OVC,0.26,WeatherDisplay:10.37,2013-08-15 17:56:00,
2013-08-15 14:01:00,82.4,75.2,29.98,South,172,0.0,0.0,79,0.01,,OVC,0.26,WeatherDisplay:10.37,2013-08-15 18:01:00,
2013-08-15 14:07:00,82.8,76.0,29.98,SE,132,0.0,0.0,80,0.01,,OVC,0.26,WeatherDisplay:10.37,2013-08-15 18:07:00,
2013-08-15 14:12:00,83.0,75.0,29.98,SSE,157,0.0,0.0,77,0.01,,OVC,0.26,WeatherDisplay:10.37,2013-08-15 18:12:00,
2013-08-15 14:17:00,82.8,75.2,29.97,SSE,160,1.2,0.0,78,0.01,,OVC,0.26,WeatherDisplay:10.37,2013-08-15 18:17:00,
2013-08-15 14:22:00,83.2,75.6,29.97,SE,145,8.1,0.0,78,0.00,,OVC,0.26,WeatherDisplay:10.37,2013-08-15 18:22:00,
2013-08-15 14:27:00,83.2,74.8,29.97,SE,134,6.9,6.9,76,0.00,,OVC,0.26,WeatherDisplay:10.37,2013-08-15 18:27:00,
2013-08-15 14:32:00,83.6,75.6,29.96,SE,138,10.4,0.0,77,0.00,,OVC,0.26,WeatherDisplay:10.37,2013-08-15 18:32:00,
2013-08-15 14:38:00,83.8,75.8,29.96,SE,146,12.0,12.0,77,0.00,,OVC,0.26,WeatherDisplay:10.37,2013-08-15 18:38:00,
2013-08-15 14:43:00,83.8,75.0,29.96,SSE,153,0.0,0.0,75,0.00,,OVC,0.26,WeatherDisplay:10.37,2013-08-15 18:43:00,
2013-08-15 14:48:00,83.6,74.8,29.96,SE,138,0.0,0.0,75,0.00,,OVC,0.26,WeatherDisplay:10.37,2013-08-15 18:48:00,
2013-08-15 14:53:00,84.0,75.6,29.96,SE,127,4.6,4.6,76,0.00,,OVC,0.26,WeatherDisplay:10.37,2013-08-15 18:53:00,
2013-08-15 14:58:00,84.5,75.7,29.96,SE,132,0.0,0.0,75,0.00,,OVC,0.26,WeatherDisplay:10.37,2013-08-15 18:58:00,
2013-08-15 15:03:00,85.1,75.1,29.96,SE,137,0.0,0.0,72,0.00,,OVC,0.26,WeatherDisplay:10.37,2013-08-15 19:03:00,
2013-08-15 15:08:00,85.5,75.0,29.96,SE,137,0.0,0.0,71,0.00,,OVC,0.26,WeatherDisplay:10.37,2013-08-15 19:08:00,
2013-08-15 15:14:00,85.5,74.6,29.96,SE,132,3.0,3.0,70,0.00,,OVC,0.26,WeatherDisplay:10.37,2013-08-15 19:14:00,
2013-08-15 15:19:00,85.7,75.2,29.95,SE,144,11.5,0.0,71,0.00,,OVC,0.26,WeatherDisplay:10.37,2013-08-15 19:19:00,
2013-08-15 15:24:00,85.7,75.2,29.95,SE,138,0.0,0.0,71,0.00,,OVC,0.26,WeatherDisplay:10.37,2013-08-15 19:24:00,
2013-08-15 15:29:00,86.1,75.6,29.95,SSE,152,0.0,1.0,71,0.00,,OVC,0.26,WeatherDisplay:10.37,2013-08-15 19:29:00,
2013-08-15 15:34:00,85.7,75.2,29.95,SSE,159,11.5,11.5,71,0.00,,OVC,0.26,WeatherDisplay:10.37,2013-08-15 19:34:00,
2013-08-15 15:39:00,85.3,75.2,29.95,SE,144,0.0,0.0,72,0.00,,OVC,0.26,WeatherDisplay:10.37,2013-08-15 19:39:00,
2013-08-15 15:44:00,85.5,75.9,29.94,SE,133,0.0,0.0,73,0.00,,OVC,0.26,WeatherDisplay:10.37,2013-08-15 19:44:00,
2013-08-15 15:49:00,85.5,75.4,29.94,SE,132,0.0,0.0,72,0.00,,OVC,0.26,WeatherDisplay:10.37,2013-08-15 19:49:00,
2013-08-15 15:54:00,85.5,75.0,29.94,SE,136,0.0,0.0,71,0.00,,OVC,0.26,WeatherDisplay:10.37,2013-08-15 19:54:00,
2013-08-15 16:00:00,85.7,75.2,29.94,SE,140,10.4,10.4,71,0.00,,OVC,0.26,WeatherDisplay:10.37,2013-08-15 20:00:00,
2013-08-15 16:05:00,85.3,74.8,29.94,SSE,163,9.2,9.2,71,0.00,,OVC,0.26,WeatherDisplay:10.37,2013-08-15 20:05:00,
2013-08-15 16:11:00,85.3,74.8,29.94,SSE,147,12.7,12.7,71,0.00,,OVC,0.26,WeatherDisplay:10.37,2013-08-15 20:11:00,
2013-08-15 16:16:00,85.1,74.6,29.94,SE,142,0.0,0.0,71,0.00,,OVC,0.26,WeatherDisplay:10.37,2013-08-15 20:16:00,
2013-08-15 16:21:00,85.1,75.1,29.94,SE,137,9.2,9.2,72,0.00,,OVC,0.26,WeatherDisplay:10.37,2013-08-15 20:21:00,
2013-08-15 16:27:00,84.7,74.7,29.94,SE,145,18.4,18.4,72,0.00,,OVC,0.26,WeatherDisplay:10.37,2013-08-15 20:27:00,
2013-08-15 16:32:00,84.5,74.5,29.94,SSE,157,16.1,16.1,72,0.00,,OVC,0.26,WeatherDisplay:10.37,2013-08-15 20:32:00,
2013-08-15 16:37:00,84.5,74.9,29.94,SE,130,0.0,0.0,73,0.00,,OVC,0.26,WeatherDisplay:10.37,2013-08-15 20:37:00,
2013-08-15 16:42:00,84.7,75.1,29.94,SSE,150,11.5,11.5,73,0.00,,OVC,0.26,WeatherDisplay:10.37,2013-08-15 20:42:00,
2013-08-15 16:47:00,84.7,74.7,29.94,SE,146,9.2,9.2,72,0.00,,OVC,0.26,WeatherDisplay:10.37,2013-08-15 20:47:00,
2013-08-15 16:52:00,84.7,75.1,29.94,SE,137,5.8,5.8,73,0.00,,OVC,0.26,WeatherDisplay:10.37,2013-08-15 20:52:00,
2013-08-15 16:57:00,84.5,74.5,29.94,SE,126,19.6,19.6,72,0.00,,OVC,0.26,WeatherDisplay:10.37,2013-08-15 20:57:00,
2013-08-15 17:02:00,84.3,74.7,29.94,SE,146,19.6,19.6,73,0.00,,OVC,0.26,WeatherDisplay:10.37,2013-08-15 21:02:00,
2013-08-15 17:07:00,84.3,74.7,29.94,SE,127,11.5,11.5,73,0.00,,OVC,0.26,WeatherDisplay:10.37,2013-08-15 21:07:00,
2013-08-15 17:12:00,84.3,75.1,29.94,SE,130,0.0,0.0,74,0.00,,OVC,0.26,WeatherDisplay:10.37,2013-08-15 21:12:00,
2013-08-15 17:17:00,84.3,75.1,29.95,SE,127,0.0,0.0,74,0.00,,OVC,0.26,WeatherDisplay:10.37,2013-08-15 21:17:00,
2013-08-15 17:22:00,84.3,75.1,29.95,SE,130,0.0,0.0,74,0.00,,OVC,0.26,WeatherDisplay:10.37,2013-08-15 21:22:00,
2013-08-15 17:28:00,84.3,74.7,29.95,SE,145,0.0,0.0,73,0.00,,OVC,0.26,WeatherDisplay:10.37,2013-08-15 21:28:00,
2013-08-15 17:33:00,84.1,74.9,29.94,SSE,147,0.0,0.0,74,0.00,,OVC,0.26,WeatherDisplay:10.37,2013-08-15 21:33:00,
2013-08-15 17:38:00,84.0,74.8,29.94,SSE,167,16.1,16.1,74,0.00,,OVC,0.26,WeatherDisplay:10.37,2013-08-15 21:38:00,
2013-08-15 17:43:00,83.6,74.8,29.94,SSE,150,15.0,15.0,75,0.00,,OVC,0.26,WeatherDisplay:10.37,2013-08-15 21:43:00,
2013-08-15 17:48:00,83.4,74.6,29.94,South,176,15.0,15.0,75,0.00,,OVC,0.26,WeatherDisplay:10.37,2013-08-15 21:48:00,
2013-08-15 17:53:00,83.2,74.0,29.94,SSW,203,13.0,13.0,74,0.00,,OVC,0.26,WeatherDisplay:10.37,2013-08-15 21:53:00,
2013-08-15 17:58:00,83.2,74.0,29.94,SSE,159,0.0,0.0,74,0.00,,OVC,0.26,WeatherDisplay:10.37,2013-08-15 21:58:00,
2013-08-15 18:04:00,83.0,73.0,29.94,SSE,150,11.5,11.5,72,0.00,,OVC,0.26,WeatherDisplay:10.37,2013-08-15 22:04:00,
2013-08-15 18:09:00,82.8,72.8,29.94,SSE,168,3.5,3.5,72,0.00,,OVC,0.26,WeatherDisplay:10.37,2013-08-15 22:09:00,
2013-08-15 18:14:00,82.8,73.3,29.94,South,171,3.5,0.0,73,0.00,,OVC,0.26,WeatherDisplay:10.37,2013-08-15 22:14:00,
2013-08-15 18:19:00,82.6,73.9,29.93,SE,146,10.0,10.0,75,0.00,,OVC,0.26,WeatherDisplay:10.37,2013-08-15 22:19:00,
2013-08-15 18:24:00,82.6,74.3,29.93,South,191,0.0,0.5,76,0.00,,OVC,0.26,WeatherDisplay:10.37,2013-08-15 22:24:00,
2013-08-15 18:29:00,82.6,74.7,29.93,SSE,165,19.6,19.6,77,0.00,,OVC,0.26,WeatherDisplay:10.37,2013-08-15 22:29:00,
2013-08-15 18:34:00,82.4,74.8,29.94,SSE,148,13.8,13.8,78,0.00,,OVC,0.26,WeatherDisplay:10.37,2013-08-15 22:34:00,
2013-08-15 18:39:00,82.4,74.8,29.94,SSE,156,0.0,0.0,78,0.00,,OVC,0.26,WeatherDisplay:10.37,2013-08-15 22:39:00,
2013-08-15 18:44:00,82.4,74.8,29.94,South,173,0.0,0.0,78,0.00,,OVC,0.26,WeatherDisplay:10.37,2013-08-15 22:44:00,
2013-08-15 18:49:00,82.4,75.2,29.94,SSE,168,0.0,0.0,79,0.00,,OVC,0.26,WeatherDisplay:10.37,2013-08-15 22:49:00,
2013-08-15 18:54:00,82.2,75.0,29.94,South,189,0.0,0.0,79,0.00,,OVC,0.26,WeatherDisplay:10.37,2013-08-15 22:54:00,
2013-08-15 18:59:00,82.2,75.0,29.94,South,184,0.0,0.0,79,0.00,,OVC,0.26,WeatherDisplay:10.37,2013-08-15 22:59:00,
2013-08-15 19:04:00,82.2,75.0,29.95,SSW,193,3.5,0.0,79,0.00,,OVC,0.26,WeatherDisplay:10.37,2013-08-15 23:04:00,
2013-08-15 19:09:00,82.2,75.0,29.95,South,173,0.0,0.0,79,0.00,,OVC,0.26,WeatherDisplay:10.37,2013-08-15 23:09:00,
2013-08-15 19:14:00,82.0,74.8,29.95,South,178,0.0,0.0,79,0.00,,OVC,0.26,WeatherDisplay:10.37,2013-08-15 23:14:00,
2013-08-15 19:19:00,82.0,74.8,29.95,SSE,157,8.1,8.1,79,0.00,,OVC,0.26,WeatherDisplay:10.37,2013-08-15 23:19:00,
2013-08-15 19:24:00,82.0,74.8,29.95,South,179,11.5,11.5,79,0.00,,OVC,0.26,WeatherDisplay:10.37,2013-08-15 23:24:00,
2013-08-15 19:30:00,82.0,74.8,29.96,South,175,7.0,7.0,79,0.00,,OVC,0.26,WeatherDisplay:10.37,2013-08-15 23:30:00,
2013-08-15 19:35:00,82.0,74.8,29.96,SSE,158,0.0,0.0,79,0.00,,OVC,0.26,WeatherDisplay:10.37,2013-08-15 23:35:00,
2013-08-15 19:40:00,81.8,74.3,29.96,South,184,0.0,0.0,78,0.00,,OVC,0.26,WeatherDisplay:10.37,2013-08-15 23:40:00,
2013-08-15 19:45:00,81.8,74.3,29.96,South,183,0.0,0.0,78,0.00,,OVC,0.26,WeatherDisplay:10.37,2013-08-15 23:45:00,
2013-08-15 19:50:00,81.8,74.6,29.96,South,185,11.5,11.5,79,0.00,,OVC,0.26,WeatherDisplay:10.37,2013-08-15 23:50:00,
2013-08-15 19:55:00,82.0,74.8,29.96,SSE,167,0.0,0.0,79,0.00,,OVC,0.26,WeatherDisplay:10.37,2013-08-15 23:55:00,
2013-08-15 20:00:00,81.8,74.6,29.97,SSE,167,0.0,0.0,79,0.00,,OVC,0.26,WeatherDisplay:10.37,2013-08-16 00:00:00,
2013-08-15 20:05:00,81.8,75.0,29.97,SSE,159,0.0,0.0,80,0.00,,OVC,0.26,WeatherDisplay:10.37,2013-08-16 00:05:00,
2013-08-15 20:10:00,81.8,75.0,29.97,SSE,159,0.0,0.0,80,0.00,,OVC,0.26,WeatherDisplay:10.37,2013-08-16 00:10:00,
2013-08-15 20:15:00,81.8,75.0,29.98,SSE,159,0.0,0.0,80,0.00,,OVC,0.26,WeatherDisplay:10.37,2013-08-16 00:15:00,
2013-08-15 20:20:00,81.8,75.0,29.98,SSE,159,0.0,0.0,80,0.00,,OVC,0.26,WeatherDisplay:10.37,2013-08-16 00:20:00,
2013-08-15 20:25:00,81.8,75.0,29.98,SSE,147,0.0,0.0,80,0.00,,OVC,0.26,WeatherDisplay:10.37,2013-08-16 00:25:00,
2013-08-15 20:30:00,81.6,74.8,29.98,SSE,148,0.0,0.0,80,0.00,,OVC,0.26,WeatherDisplay:10.37,2013-08-16 00:30:00,
2013-08-15 20:35:00,81.6,74.8,29.98,SE,146,11.5,11.5,80,0.00,,OVC,0.26,WeatherDisplay:10.37,2013-08-16 00:35:00,
2013-08-15 20:40:00,81.8,75.0,29.98,SE,146,0.0,0.0,80,0.00,,OVC,0.26,WeatherDisplay:10.37,2013-08-16 00:40:00,
2013-08-15 20:45:00,81.6,74.8,29.98,South,175,1.2,0.0,80,0.00,,OVC,0.26,WeatherDisplay:10.37,2013-08-16 00:45:00,
2013-08-15 20:50:00,81.8,75.0,29.98,South,175,0.0,0.0,80,0.00,,OVC,0.26,WeatherDisplay:10.37,2013-08-16 00:50:00,
2013-08-15 20:55:00,81.8,75.0,29.98,South,178,0.0,0.0,80,0.00,,OVC,0.26,WeatherDisplay:10.37,2013-08-16 00:55:00,
2013-08-15 21:00:00,81.8,75.0,29.99,South,178,0.0,0.0,80,0.00,,OVC,0.26,WeatherDisplay:10.37,2013-08-16 01:00:00,
2013-08-15 21:05:00,81.8,75.0,29.99,South,178,0.0,0.0,80,0.00,,OVC,0.26,WeatherDisplay:10.37,2013-08-16 01:05:00,
2013-08-15 21:10:00,81.6,74.8,29.99,South,178,0.0,0.0,80,0.00,,OVC,0.26,WeatherDisplay:10.37,2013-08-16 01:10:00,
2013-08-15 21:16:00,81.8,75.0,30.00,South,176,0.0,0.0,80,0.00,,OVC,0.26,WeatherDisplay:10.37,2013-08-16 01:16:00,
2013-08-15 21:21:00,81.6,74.8,30.00,South,175,0.0,0.0,80,0.00,,OVC,0.26,WeatherDisplay:10.37,2013-08-16 01:21:00,
2013-08-15 21:26:00,81.8,75.0,30.00,South,174,0.0,0.0,80,0.00,,OVC,0.26,WeatherDisplay:10.37,2013-08-16 01:26:00,
2013-08-15 21:31:00,81.8,75.0,30.01,SSE,160,0.0,0.0,80,0.00,,OVC,0.26,WeatherDisplay:10.37,2013-08-16 01:31:00,
2013-08-15 21:36:00,81.8,75.0,30.01,SSE,160,0.0,0.0,80,0.00,,OVC,0.26,WeatherDisplay:10.37,2013-08-16 01:36:00,
2013-08-15 21:41:00,81.8,75.0,30.01,SSE,160,0.0,0.0,80,0.00,,OVC,0.26,WeatherDisplay:10.37,2013-08-16 01:41:00,
2013-08-15 21:47:00,82.0,75.2,30.02,SSE,161,0.0,0.0,80,0.00,,OVC,0.26,WeatherDisplay:10.37,2013-08-16 01:47:00,
2013-08-15 21:52:00,82.0,75.2,30.02,SSE,161,0.0,0.0,80,0.00,,OVC,0.26,WeatherDisplay:10.37,2013-08-16 01:52:00,
2013-08-15 21:57:00,82.0,75.2,30.02,SSE,161,0.0,0.0,80,0.00,,OVC,0.26,WeatherDisplay:10.37,2013-08-16 01:57:00,
2013-08-15 22:02:00,82.0,75.2,30.03,SSE,160,0.0,0.0,80,0.00,CLR,OVC,0.26,WeatherDisplay:10.37,2013-08-16 02:02:00,
2013-08-15 22:07:00,82.0,75.6,30.03,SSE,160,0.0,0.0,81,0.00,CLR,OVC,0.26,WeatherDisplay:10.37,2013-08-16 02:07:00,
2013-08-15 22:12:00,82.0,75.6,30.03,SSE,160,0.0,0.0,81,0.00,CLR,OVC,0.26,WeatherDisplay:10.37,2013-08-16 02:12:00,
2013-08-15 22:17:00,82.0,75.2,30.02,SSE,163,0.0,0.0,80,0.00,CLR,OVC,0.26,WeatherDisplay:10.37,2013-08-16 02:17:00,
2013-08-15 22:22:00,82.0,75.2,30.02,SSE,164,0.0,0.0,80,0.00,CLR,OVC,0.26,WeatherDisplay:10.37,2013-08-16 02:22:00,
2013-08-15 22:27:00,82.0,75.2,30.02,SSE,165,0.0,0.0,80,0.00,CLR,OVC,0.26,WeatherDisplay:10.37,2013-08-16 02:27:00,
2013-08-15 22:32:00,82.0,75.2,30.02,SSE,165,0.0,0.0,80,0.00,CLR,OVC,0.26,WeatherDisplay:10.37,2013-08-16 02:32:00,
2013-08-15 22:37:00,82.0,75.2,30.02,SSE,165,0.0,0.0,80,0.00,CLR,OVC,0.26,WeatherDisplay:10.37,2013-08-16 02:37:00,
2013-08-15 22:42:00,81.8,75.0,30.02,South,172,0.0,0.0,80,0.00,CLR,OVC,0.26,WeatherDisplay:10.37,2013-08-16 02:42:00,
2013-08-15 22:47:00,81.8,75.0,30.02,South,172,0.0,0.0,80,0.00,CLR,OVC,0.26,WeatherDisplay:10.37,2013-08-16 02:47:00,
2013-08-15 22:52:00,81.8,75.0,30.02,South,172,0.0,0.0,80,0.00,CLR,OVC,0.26,WeatherDisplay:10.37,2013-08-16 02:52:00,
2013-08-15 22:57:00,81.8,75.0,30.02,South,172,0.0,0.0,80,0.00,CLR,OVC,0.26,WeatherDisplay:10.37,2013-08-16 02:57:00,
2013-08-15 23:02:00,81.6,74.8,30.02,South,172,0.0,0.0,80,0.00,CLR,OVC,0.26,WeatherDisplay:10.37,2013-08-16 03:02:00,
2013-08-15 23:08:00,81.6,74.8,30.02,South,180,0.0,0.0,80,0.00,CLR,OVC,0.26,WeatherDisplay:10.37,2013-08-16 03:08:00,
2013-08-15 23:13:00,81.6,74.8,30.02,South,180,0.0,0.0,80,0.00,CLR,OVC,0.26,WeatherDisplay:10.37,2013-08-16 03:13:00,
2013-08-15 23:18:00,81.6,74.8,30.02,South,180,0.0,0.0,80,0.00,CLR,OVC,0.26,WeatherDisplay:10.37,2013-08-16 03:18:00,
2013-08-15 23:23:00,81.6,74.8,30.02,South,180,0.0,0.0,80,0.00,CLR,OVC,0.26,WeatherDisplay:10.37,2013-08-16 03:23:00,
2013-08-15 23:28:00,81.4,75.0,30.02,South,180,0.0,0.0,81,0.00,CLR,OVC,0.26,WeatherDisplay:10.37,2013-08-16 03:28:00,
2013-08-15 23:33:00,81.4,75.0,30.02,South,180,0.0,0.0,81,0.00,CLR,OVC,0.26,WeatherDisplay:10.37,2013-08-16 03:33:00,
2013-08-15 23:38:00,81.4,75.0,30.02,South,180,0.0,0.0,81,0.00,CLR,OVC,0.26,WeatherDisplay:10.37,2013-08-16 03:38:00,
2013-08-15 23:43:00,81.4,75.0,30.02,South,180,0.0,0.0,81,0.00,CLR,OVC,0.26,WeatherDisplay:10.37,2013-08-16 03:43:00,
2013-08-15 23:48:00,81.4,75.0,30.02,South,180,0.0,0.0,81,0.00,CLR,OVC,0.26,WeatherDisplay:10.37,2013-08-16 03:48:00,
2013-08-15 23:53:00,81.2,74.8,30.02,South,180,0.0,0.0,81,0.00,CLR,OVC,0.26,WeatherDisplay:10.37,2013-08-16 03:53:00,
2013-08-15 23:58:00,81.2,74.8,30.02,South,180,0.0,0.0,81,0.00,CLR,OVC,0.26,WeatherDisplay:10.37,2013-08-16 03:58:00,